Tracking 19827 objects as of 21-Aug-2019
HD Live streaming from Space Station
objects crossing your sky now

FACSAT 1

Track FACSAT 1 now!
10-day predictions


NORAD ID: 43721
Int'l Code: 2018-096C
Perigee: 480.2 km
Apogee: 507.2 km
Inclination: 97.5 °
Period: 94.3 minutes
Semi major axis: 6864 km
RCS: Unknown
Launch date: November 29, 2018
Source: (TBD)
Launch site: SRIHARIKOTA (SRI)
aabbcc
Your satellite tracking list
Your tracking list is empty




NASA's NSSDC Master Catalog

Two Line Element Set (TLE):
1 43721U 18096C   19233.32663223  .00000882  00000-0  36573-4 0  9992
2 43721  97.4556 303.0798 0019613 104.7149 255.6265 15.26412191 40446
Source of the keplerian elements: AFSPC